Montauk, NY

12:30 AM EDT on May 23, 2017 (GMT -0400)
Montauk

Weather History for KMTP - August, 2014

Change the Weather History Date:

Thursday, August 21, 2014

  Actual Average (KHTO) Record (KHTO)
Temperature  
Mean Temperature 68 °F -  
Max Temperature 77 °F 77 °F 88 °F (1955)
Min Temperature 60 °F 59 °F 48 °F (1949)
Cooling Degree Days 2    
Growing Degree Days 18 (Base 50)    
Moisture  
Dew Point 62 °F    
Average Humidity 79    
Maximum Humidity 87    
Minimum Humidity 68    
Precipitation  
Precipitation 0.00 in - - ()
Sea Level Pressure  
Sea Level Pressure 30.07 in    
Wind  
Wind Speed 3 mph (NNE)    
Max Wind Speed 8 mph    
Max Gust Speed -    
Averages and records for this station are not official NWS values.
T = Trace of Precipitation, MM = Missing Value Source: NWS Daily Summary

Daily Weather History Graph

Daily Weather History Graph

Search for Another Location

Airport or City:

Trip Planner

Search our weather history database for the weather conditions in past years. The results will help you decide how hot, cold, wet, or windy it might be!

Date:

Astronomy

Aug. 21, 2014 Rise Set
Actual Time 6:03 AM EDT 7:37 PM EDT
Civil Twilight 5:34 AM EDT 8:06 PM EDT
Nautical Twilight 4:59 AM EDT 8:41 PM EDT
Astronomical Twilight 4:21 AM EDT 9:18 PM EDT
Moon 2:30 AM EDT (8/21) 5:05 PM EDT (8/21)
Length of Visible Light 14h 32m
Length of Day
13h 34m
Waning Crescent, 13% of the Moon is Illuminated
Aug 21
Waning Crescent
Aug 25
New
Sep 2
First Quarter
Sep 8
Full
Sep 15
Last Quarter

Hourly Weather History & Observations

Time (EDT) Temp. Dew Point Humidity Pressure Visibility Wind Dir Wind Speed Gust Speed Precip Events Conditions
12:54 AM 60.1 °F 55.9 °F 86% 30.05 in - Calm Calm - N/A   Unknown
1:54 AM 60.1 °F 55.9 °F 86% 30.06 in - Calm Calm - N/A   Unknown
2:54 AM 63.0 °F 59.0 °F 87% 30.06 in - Calm Calm - N/A   Unknown
3:54 AM 64.9 °F 61.0 °F 87% 30.05 in - NE 3.5 mph - N/A   Unknown
4:54 AM 64.9 °F 61.0 °F 87% 30.04 in - NNE 3.5 mph - N/A   Unknown
5:54 AM 66.0 °F 62.1 °F 87% 30.06 in - North 5.8 mph - N/A   Unknown
6:54 AM 66.0 °F 62.1 °F 87% 30.08 in - North 5.8 mph - N/A   Unknown
7:54 AM 66.0 °F 59.0 °F 78% 30.10 in - NNE 4.6 mph - N/A   Unknown
8:54 AM 69.1 °F 61.0 °F 75% 30.10 in - North 5.8 mph - N/A   Unknown
9:54 AM 70.0 °F 62.1 °F 76% 30.09 in - Variable 4.6 mph - N/A   Unknown
10:54 AM 71.1 °F 64.0 °F 78% 30.10 in - Variable 4.6 mph - N/A   Unknown
11:54 AM 73.9 °F 64.9 °F 73% 30.09 in - NE 6.9 mph - N/A   Unknown
12:54 PM 73.9 °F 64.0 °F 71% 30.09 in - NE 6.9 mph - N/A   Unknown
1:54 PM 73.9 °F 63.0 °F 68% 30.09 in - ESE 8.1 mph - N/A   Unknown
2:54 PM 75.0 °F 64.0 °F 69% 30.07 in - Variable 4.6 mph - N/A   Unknown
3:54 PM 75.0 °F 64.0 °F 69% 30.06 in - Variable 5.8 mph - N/A   Unknown
4:54 PM 73.9 °F 64.0 °F 71% 30.07 in - Variable 3.5 mph - N/A   Unknown
5:54 PM 72.0 °F 64.0 °F 76% 30.07 in - Variable 3.5 mph - N/A   Unknown
6:54 PM 70.0 °F 63.0 °F 78% 30.07 in - Calm Calm - N/A   Unknown
7:54 PM 69.1 °F 62.1 °F 78% 30.07 in - Calm Calm - N/A   Unknown
8:54 PM 69.1 °F 63.0 °F 81% 30.08 in - Calm Calm - N/A   Unknown
9:54 PM 69.1 °F 64.0 °F 84% 30.08 in - Calm Calm - N/A   Unknown
10:54 PM 69.1 °F 64.0 °F 84% 30.08 in - Calm Calm - N/A   Unknown
11:54 PM 69.1 °F 64.0 °F 84% 30.08 in - Calm Calm - N/A   Unknown